This is the latest recevied weather packets stored in our database for station/object KB0BS-13. If no packets are shown the sender has not sent any weather packets the latest 10 day(s).
| Time | Temp. | Humidity | Pressure | Rain* | Wind** | Luminosity | Snow |
|---|---|---|---|---|---|---|---|
| 1778130811 | -1.11° C | 99% | 1014.2 hPa | 0 mm | - | 0 W/m² | - |
| 1778130508 | -1.11° C | 98% | 1014.1 hPa | 0 mm | - | 0 W/m² | - |
| 1778130204 | -1.11° C | 98% | 1014.1 hPa | 0 mm | - | 0 W/m² | - |
| 1778129901 | -1.11° C | 97% | 1014.1 hPa | 0 mm | - | 0 W/m² | - |
| 1778129598 | -0.56° C | 97% | 1014.3 hPa | 0 mm | - | 0 W/m² | - |
| 1778129295 | -0.56° C | 97% | 1014.1 hPa | 0 mm | - | 0 W/m² | - |
| 1778128992 | -0.56° C | 95% | 1014.4 hPa | 0 mm | - | 0 W/m² | - |
| 1778128688 | 0° C | 93% | 1014.3 hPa | 0 mm | - | 0 W/m² | - |
| 1778128384 | -0.56° C | 92% | 1014.4 hPa | 0 mm | - | 0 W/m² | - |
| 1778128080 | -0.56° C | 95% | 1014.4 hPa | 0 mm | - | 0 W/m² | - |
| 1778127776 | -0.56° C | 96% | 1014.3 hPa | 0 mm | - | 0 W/m² | - |
| 1778127473 | -0.56° C | 96% | 1014.2 hPa | 0 mm | - | 0 W/m² | - |
| 1778127170 | -0.56° C | 95% | 1014.2 hPa | 0 mm | - | 0 W/m² | - |
| 1778126867 | -0.56° C | 94% | 1014.4 hPa | 0 mm | - | 0 W/m² | - |
| 1778126563 | -0.56° C | 93% | 1014.2 hPa | 0 mm | - | 0 W/m² | - |
| 1778126259 | -0.56° C | 92% | 1014.3 hPa | 0 mm | - | 0 W/m² | - |
| 1778125954 | -0.56° C | 92% | 1014.3 hPa | 0 mm | - | 0 W/m² | - |
| 1778125652 | -0.56° C | 92% | 1014.3 hPa | 0 mm | - | 0 W/m² | - |
| 1778125349 | -0.56° C | 91% | 1014.5 hPa | 0 mm | - | 0 W/m² | - |
| 1778125047 | 0° C | 90% | 1014.1 hPa | 0 mm | - | 0 W/m² | - |
| 1778124745 | 0° C | 90% | 1014.4 hPa | 0 mm | - | 0 W/m² | - |
| 1778124442 | -0.56° C | 92% | 1014.3 hPa | 0 mm | - | 0 W/m² | - |
| 1778124138 | 0° C | 90% | 1014.5 hPa | 0 mm | - | 0 W/m² | - |
| 1778123835 | 0° C | 90% | 1014.6 hPa | 0 mm | - | 0 W/m² | - |
| 1778123531 | 0.56° C | 91% | 1014.4 hPa | 0 mm | - | 0 W/m² | - |
* Rain latest hour (hover to see other rain measurements)
** Current wind speed in m/s (hover to see current wind gust speed)